Hourly Data Report for October 13, 2012

All times are specified in Local Standard Time (LST). Add 1 hour to adjust for Daylight Saving Time where and when it is observed.

KITCHENER/WATERLOO
ONTARIO

43°27'39.000" N
80°22'43.000" W
321.60 m
6144239
71368
YKF

Download Data

Hourly Data (October 2012)
Hourly Data Report for October 13, 2012
Temp Definition
°C
Dew Point Temp Definition
°C
Rel Hum Definition
%
Wind Dir Definition
10's deg

Wind Spd Definition
km/h
Visibility Definition
km
Stn Press Definition
kPa
Hmdx Definition


Wind Chill Definition


Weather Definition


TIME
00:00 Legend Double Dagger -3.5 -4.2 95 LegendMM 4 16.1 99.09   -5 LegendNANA
01:00 Legend Double Dagger -4.2 -4.5 98   0 16.1 99.09     LegendNANA
02:00 Legend Double Dagger -5.0 -5.4 97   0 16.1 99.06     LegendNANA
03:00 Legend Double Dagger -4.7 -5.0 98   0 16.1 99.00     LegendNANA
04:00 Legend Double Dagger -5.2 -5.5 98   0 16.1 99.01     LegendNANA
05:00 Legend Double Dagger -5.0 -5.3 98   0 16.1 99.01     LegendNANA
06:00 Legend Double Dagger -4.3 -4.6 98 7 5 16.1 98.95   -6 LegendNANA
07:00 Legend Double Dagger -4.5 -4.8 98 LegendMM 4 16.1 98.96   -6 LegendNANA
08:00 Legend Double Dagger -0.1 -1.7 89 9 4 16.1 98.96   -1 LegendNANA
09:00 Legend Double Dagger 5.5 0.5 70 14 13 16.1 98.94     LegendNANA
10:00 Legend Double Dagger 7.1 -0.3 59 17 13 16.1 98.87     LegendNANA
11:00 Legend Double Dagger 7.6 -0.2 58 17 17 16.1 98.77     LegendNANA
12:00 Legend Double Dagger 7.6 0.9 63 15 18 16.1 98.64     LegendNANA
13:00 Legend Double Dagger 7.9 1.9 66 13 15 16.1 98.50     LegendNANA
14:00 Legend Double Dagger 8.9 2.2 63 14 22 16.1 98.29     LegendNANA
15:00 Legend Double Dagger 7.7 3.2 73 16 35 16.1 98.22     LegendNANA
16:00 Legend Double Dagger 6.3 5.1 92 14 17 14.5 98.10     LegendNANA
17:00 Legend Double Dagger 6.3 5.3 93 12 17 16.1 97.92     LegendNANA
18:00 Legend Double Dagger 6.4 5.4 93 13 17 16.1 97.83     LegendNANA
19:00 Legend Double Dagger 6.3 5.3 94 14 26 11.3 97.71     LegendNANA
20:00 Legend Double Dagger 6.5 6.1 97 14 11 3.2 97.70     LegendNANA
21:00 Legend Double Dagger 7.0 6.7 98 11 9 3.2 97.56     LegendNANA
22:00 Legend Double Dagger 7.6 7.4 99 16 11 3.2 97.48     LegendNANA
23:00 Legend Double Dagger 11.4 11.1 98 20 22 4.8 97.40     LegendNANA

Notes on Data Quality.

Legend

  • E = Estimated
  • M = Missing
  • NA = Not Available
  • ‡ = Partner data that is not subject to review by the National Climate Archives
Date modified: